Regional Weather Roundup
Issued by NWS

Home | Current Version | Previous Version | Text Only | Print | Product List | Glossary On
Versions: 1 2 3 4 5 6 7 8 9 10 11 12 13 14 15 16 17 18 19 20 21 22 23 24 25 26 27 28 29 30 31 32 33 34 35 36 37 38 39 40 41 42 43 44 45 46 47 48 49 50
000
ASUS43 KLSX 300059
RWRMO

WEATHER SUMMARY FOR MISSOURI
NATIONAL WEATHER SERVICE SPRINGFIELD MO
800 PM CDT MON SEP 29 2014

NOTE: "FAIR" INDICATES FEW OR NO CLOUDS BELOW 12,000 FEET WITH NO
       SIGNIFICANT WEATHER AND/OR OBSTRUCTIONS TO VISIBILITY.
       CURRENT SKY AND/OR WEATHER CONDITIONS ARE NOT AVAILABLE FOR
       CHILLICOTHE AND FARMINGTON.

MOZ001>031-035>038-043-044-053-054-300200-
...NORTHERN AND WESTERN MISSOURI...

CITY           SKY/WX    TMP DP  RH WIND       PRES   REMARKS
KANSAS CTY INT CLEAR     76  58  53 E8        29.96S
KANSAS C DTWN  CLEAR     76  59  55 E5        29.94F
LEE`S SUMMIT   CLEAR     75  59  57 SE5       29.96F
ST JOSEPH      CLEAR     73  58  59 SE5       29.95S
CHILLICOTHE      N/A     67  63  87 CALM      29.97S
KIRKSVILLE     CLEAR     64  60  87 CALM      29.98S

$$
MOZ066>068-077>081-088>096-101>105-300200-
...SOUTHWEST MISSOURI...

CITY           SKY/WX    TMP DP  RH WIND       PRES   REMARKS
SPRINGFIELD    CLEAR     71  59  65 CALM      29.98S
JOPLIN         CLEAR     71  61  70 E3        29.96S

$$
MOZ032>034-039>042-045>050-055>058-069>072-300200-
...CENTRAL MISSOURI...

CITY           SKY/WX    TMP DP  RH WIND       PRES   REMARKS
COLUMBIA       CLEAR     68  60  75 CALM      29.97S
JEFFERSON CITY CLEAR     71  62  73 CALM      29.95S
ROLLA          CLEAR     67  55  65 CALM      29.97S
SEDALIA        CLEAR     70  57  63 CALM      29.97S
OSAGE BEACH    CLEAR     70  57  64 CALM      29.97S

$$
MOZ051-052-059>065-300200-
...EAST CENTRAL MISSOURI...

CITY           SKY/WX    TMP DP  RH WIND       PRES   REMARKS
ST LOUIS INTL  CLEAR     77  58  51 CALM      29.97S
SPIRIT OF STL  CLEAR     66  61  84 CALM      29.95S
ST CHARLES     CLEAR     69  62  78 CALM      29.95S

$$
MOZ072>076-082>087-097>100-106>115-300200-
...SOUTH CENTRAL AND SOUTHEAST MISSOURI...

CITY           SKY/WX    TMP DP  RH WIND       PRES   REMARKS
CAPE GIRARDEAU CLEAR     68  59  73 CALM      29.95R
FARMINGTON     CLEAR     68  55  64 CALM      29.99S
POPLAR BLUFF   CLEAR     68  57  68 CALM      29.93S
WEST PLAINS    CLEAR     69  60  73 S3        29.99S

$$


USA.gov is the U.S. government's official web portal to all federal, state and local government web resources and services.